Time,TemperatureF,DewpointF,PressureIn,WindDirection,WindDirectionDegrees,WindSpeedMPH,WindSpeedGustMPH,Humidity,HourlyPrecipIn,Conditions,Clouds,dailyrainin,SoftwareType,DateUTC
2013-09-16 00:02:00,56.8,52.0,30.15,East,101,0.0,5.0,84,0.00,,,0.00,Wunderground v.1.15,2013-09-16 04:02:00,
2013-09-16 00:06:00,56.7,52.2,30.15,ESE,109,0.0,5.0,85,0.00,,,0.00,Wunderground v.1.15,2013-09-16 04:06:00,
2013-09-16 00:08:00,56.7,51.9,30.15,ESE,122,0.0,5.0,84,0.00,,,0.00,Wunderground v.1.15,2013-09-16 04:08:00,
2013-09-16 00:10:00,56.7,52.2,30.15,ESE,122,0.0,0.0,85,0.00,,,0.00,Wunderground v.1.15,2013-09-16 04:10:00,
2013-09-16 00:14:00,56.6,52.1,30.15,ESE,117,1.0,1.0,85,0.00,,,0.00,Wunderground v.1.15,2013-09-16 04:14:00,
2013-09-16 00:18:00,56.6,52.5,30.15,ESE,117,1.0,1.0,86,0.00,,,0.00,Wunderground v.1.15,2013-09-16 04:18:00,
2013-09-16 00:24:00,56.7,52.6,30.15,ESE,120,1.0,1.0,86,0.00,,,0.00,Wunderground v.1.15,2013-09-16 04:24:00,
2013-09-16 00:30:00,56.7,52.2,30.14,ESE,117,1.0,1.0,85,0.00,,,0.00,Wunderground v.1.15,2013-09-16 04:30:00,
2013-09-16 00:36:00,56.7,52.6,30.14,ESE,116,1.0,1.0,86,0.00,,,0.00,Wunderground v.1.15,2013-09-16 04:36:00,
2013-09-16 00:42:00,56.6,52.5,30.14,ESE,115,1.0,2.0,86,0.00,,,0.00,Wunderground v.1.15,2013-09-16 04:42:00,
2013-09-16 00:48:00,56.3,51.8,30.14,ESE,122,1.0,2.0,85,0.00,,,0.00,Wunderground v.1.15,2013-09-16 04:48:00,
2013-09-16 00:54:00,56.2,51.7,30.14,SE,134,2.0,2.0,85,0.00,,,0.00,Wunderground v.1.15,2013-09-16 04:54:00,
2013-09-16 01:00:00,56.1,51.7,30.14,East,96,1.0,2.0,85,0.00,,,0.00,Wunderground v.1.15,2013-09-16 05:00:00,
2013-09-16 01:08:00,56.1,52.3,30.14,ESE,111,2.0,2.0,87,0.00,,,0.00,Wunderground v.1.15,2013-09-16 05:08:00,
2013-09-16 01:14:00,56.3,52.5,30.14,ESE,113,1.0,2.0,87,0.00,,,0.00,Wunderground v.1.15,2013-09-16 05:14:00,
2013-09-16 01:20:00,56.7,52.2,30.14,SE,137,1.0,1.0,85,0.00,,,0.00,Wunderground v.1.15,2013-09-16 05:20:00,
2013-09-16 01:26:00,57.0,52.2,30.14,East,87,1.0,2.0,84,0.00,,,0.00,Wunderground v.1.15,2013-09-16 05:26:00,
2013-09-16 01:34:00,57.6,52.1,30.14,SW,219,1.0,1.0,82,0.00,,,0.00,Wunderground v.1.15,2013-09-16 05:34:00,
2013-09-16 01:40:00,58.9,52.7,30.14,NE,49,1.0,1.0,80,0.00,,,0.00,Wunderground v.1.15,2013-09-16 05:40:00,
2013-09-16 01:46:00,59.1,52.6,30.13,NNW,342,1.0,1.0,79,0.00,,,0.00,Wunderground v.1.15,2013-09-16 05:46:00,
2013-09-16 01:52:00,59.4,52.9,30.13,ENE,59,1.0,1.0,79,0.00,,,0.00,Wunderground v.1.15,2013-09-16 05:52:00,
2013-09-16 01:58:00,59.5,52.6,30.13,ESE,102,1.0,1.0,78,0.00,,,0.00,Wunderground v.1.15,2013-09-16 05:58:00,
2013-09-16 02:04:00,59.8,52.9,30.13,NNE,15,0.0,2.0,78,0.00,,,0.00,Wunderground v.1.15,2013-09-16 06:04:00,
2013-09-16 02:10:00,59.5,53.0,30.13,ENE,70,0.0,0.0,79,0.00,,,0.00,Wunderground v.1.15,2013-09-16 06:10:00,
2013-09-16 02:16:00,59.5,52.6,30.13,East,83,0.0,0.0,78,0.00,,,0.00,Wunderground v.1.15,2013-09-16 06:16:00,
2013-09-16 02:22:00,59.5,53.0,30.13,ENE,71,0.0,1.0,79,0.00,,,0.00,Wunderground v.1.15,2013-09-16 06:22:00,
2013-09-16 02:28:00,59.1,53.3,30.13,ENE,71,0.0,1.0,81,0.00,,,0.00,Wunderground v.1.15,2013-09-16 06:28:00,
2013-09-16 02:34:00,58.6,53.5,30.13,SE,139,1.0,1.0,83,0.00,,,0.00,Wunderground v.1.15,2013-09-16 06:34:00,
2013-09-16 02:40:00,58.2,53.4,30.12,East,97,1.0,1.0,84,0.00,,,0.00,Wunderground v.1.15,2013-09-16 06:40:00,
2013-09-16 02:46:00,57.9,53.4,30.12,ESE,105,1.0,1.0,85,0.00,,,0.00,Wunderground v.1.15,2013-09-16 06:46:00,
2013-09-16 02:52:00,57.6,53.4,30.12,ESE,105,1.0,1.0,86,0.00,,,0.00,Wunderground v.1.15,2013-09-16 06:52:00,
2013-09-16 02:58:00,57.5,54.0,30.12,ESE,115,1.0,2.0,88,0.00,,,0.00,Wunderground v.1.15,2013-09-16 06:58:00,
2013-09-16 03:04:00,57.5,54.0,30.12,SE,125,1.0,4.0,88,0.00,,,0.00,Wunderground v.1.15,2013-09-16 07:04:00,
2013-09-16 03:10:00,57.5,54.0,30.12,ESE,109,1.0,1.0,88,0.00,,,0.00,Wunderground v.1.15,2013-09-16 07:10:00,
2013-09-16 03:16:00,57.3,54.1,30.12,ESE,113,1.0,1.0,89,0.00,,,0.00,Wunderground v.1.15,2013-09-16 07:16:00,
2013-09-16 03:22:00,57.3,54.1,30.12,ESE,111,1.0,1.0,89,0.00,,,0.00,Wunderground v.1.15,2013-09-16 07:22:00,
2013-09-16 03:28:00,57.4,54.2,30.12,ESE,111,1.0,1.0,89,0.00,,,0.00,Wunderground v.1.15,2013-09-16 07:28:00,
2013-09-16 03:34:00,57.6,54.4,30.12,ESE,110,1.0,1.0,89,0.00,,,0.00,Wunderground v.1.15,2013-09-16 07:34:00,
2013-09-16 03:40:00,57.7,54.5,30.12,ESE,120,1.0,1.0,89,0.00,,,0.00,Wunderground v.1.15,2013-09-16 07:40:00,
2013-09-16 03:46:00,57.7,54.5,30.12,SE,124,1.0,1.0,89,0.00,,,0.00,Wunderground v.1.15,2013-09-16 07:46:00,
2013-09-16 03:52:00,57.9,54.4,30.11,ESE,113,1.0,2.0,88,0.00,,,0.00,Wunderground v.1.15,2013-09-16 07:52:00,
2013-09-16 03:58:00,58.2,54.7,30.11,ESE,113,1.0,2.0,88,0.00,,,0.00,Wunderground v.1.15,2013-09-16 07:58:00,
2013-09-16 04:04:00,58.3,55.1,30.11,ESE,113,1.0,2.0,89,0.00,,,0.00,Wunderground v.1.15,2013-09-16 08:04:00,
2013-09-16 04:10:00,58.2,54.7,30.11,ESE,113,1.0,1.0,88,0.00,,,0.00,Wunderground v.1.15,2013-09-16 08:10:00,
2013-09-16 04:16:00,58.2,55.0,30.11,ESE,112,0.0,1.0,89,0.00,,,0.00,Wunderground v.1.15,2013-09-16 08:16:00,
2013-09-16 04:22:00,57.9,54.7,30.10,ESE,112,0.0,0.0,89,0.00,,,0.00,Wunderground v.1.15,2013-09-16 08:22:00,
2013-09-16 04:28:00,57.8,54.9,30.11,ESE,112,0.0,1.0,90,0.00,,,0.00,Wunderground v.1.15,2013-09-16 08:28:00,
2013-09-16 04:34:00,57.6,54.7,30.11,ESE,113,0.0,1.0,90,0.00,,,0.00,Wunderground v.1.15,2013-09-16 08:34:00,
2013-09-16 04:40:00,57.6,55.0,30.11,ESE,113,0.0,0.0,91,0.00,,,0.00,Wunderground v.1.15,2013-09-16 08:40:00,
2013-09-16 04:46:00,57.5,54.9,30.11,ESE,112,0.0,0.0,91,0.00,,,0.00,Wunderground v.1.15,2013-09-16 08:46:00,
2013-09-16 04:52:00,57.5,54.9,30.11,ESE,113,0.0,0.0,91,0.00,,,0.00,Wunderground v.1.15,2013-09-16 08:52:00,
2013-09-16 04:58:00,57.4,54.8,30.11,ESE,111,0.0,0.0,91,0.00,,,0.00,Wunderground v.1.15,2013-09-16 08:58:00,
2013-09-16 05:04:00,57.3,54.4,30.11,ESE,112,0.0,2.0,90,0.00,,,0.00,Wunderground v.1.15,2013-09-16 09:04:00,
2013-09-16 05:10:00,57.3,54.7,30.10,ESE,112,0.0,0.0,91,0.00,,,0.00,Wunderground v.1.15,2013-09-16 09:10:00,
2013-09-16 05:16:00,57.2,54.3,30.10,ESE,112,0.0,0.0,90,0.00,,,0.00,Wunderground v.1.15,2013-09-16 09:16:00,
2013-09-16 05:22:00,57.2,54.3,30.10,ESE,112,0.0,0.0,90,0.00,,,0.00,Wunderground v.1.15,2013-09-16 09:22:00,
2013-09-16 05:28:00,57.2,54.6,30.10,ESE,112,0.0,0.0,91,0.00,,,0.00,Wunderground v.1.15,2013-09-16 09:28:00,
2013-09-16 05:34:00,57.2,54.3,30.10,ESE,111,1.0,1.0,90,0.00,,,0.00,Wunderground v.1.15,2013-09-16 09:34:00,
2013-09-16 05:40:00,57.2,54.3,30.10,ESE,111,1.0,1.0,90,0.00,,,0.00,Wunderground v.1.15,2013-09-16 09:40:00,
2013-09-16 05:46:00,57.1,54.2,30.11,ESE,112,0.0,1.0,90,0.00,,,0.00,Wunderground v.1.15,2013-09-16 09:46:00,
2013-09-16 05:52:00,57.2,54.6,30.11,ESE,112,0.0,1.0,91,0.00,,,0.00,Wunderground v.1.15,2013-09-16 09:52:00,
2013-09-16 05:58:00,57.4,54.8,30.12,ESE,113,1.0,1.0,91,0.00,,,0.00,Wunderground v.1.15,2013-09-16 09:58:00,
2013-09-16 06:04:00,57.3,54.7,30.12,ESE,112,1.0,1.0,91,0.00,,,0.00,Wunderground v.1.15,2013-09-16 10:04:00,
2013-09-16 06:10:00,57.2,54.6,30.12,East,100,1.0,1.0,91,0.00,,,0.00,Wunderground v.1.15,2013-09-16 10:10:00,
2013-09-16 06:16:00,57.1,54.5,30.12,East,100,1.0,1.0,91,0.00,,,0.00,Wunderground v.1.15,2013-09-16 10:16:00,
2013-09-16 06:22:00,57.1,54.8,30.12,East,100,0.0,0.0,92,0.00,,,0.00,Wunderground v.1.15,2013-09-16 10:22:00,
2013-09-16 06:28:00,57.0,54.7,30.12,East,100,0.0,0.0,92,0.00,,,0.00,Wunderground v.1.15,2013-09-16 10:28:00,
2013-09-16 06:34:00,56.9,54.6,30.12,East,99,0.0,0.0,92,0.00,,,0.00,Wunderground v.1.15,2013-09-16 10:34:00,
2013-09-16 06:40:00,56.7,54.7,30.13,North,8,0.0,2.0,93,0.00,,,0.00,Wunderground v.1.15,2013-09-16 10:40:00,
2013-09-16 06:46:00,56.0,53.7,30.14,NE,43,2.0,3.0,92,0.00,,,0.00,Wunderground v.1.15,2013-09-16 10:46:00,
2013-09-16 06:52:00,55.5,53.5,30.14,West,267,1.0,2.0,93,0.00,,,0.00,Wunderground v.1.15,2013-09-16 10:52:00,
2013-09-16 06:58:00,55.2,53.5,30.14,West,268,0.0,2.0,94,0.00,,,0.00,Wunderground v.1.15,2013-09-16 10:58:00,
2013-09-16 07:04:00,55.0,53.3,30.14,West,264,0.0,1.0,94,0.00,,,0.00,Wunderground v.1.15,2013-09-16 11:04:00,
2013-09-16 07:10:00,54.9,53.2,30.14,West,264,0.0,0.0,94,0.00,,,0.00,Wunderground v.1.15,2013-09-16 11:10:00,
2013-09-16 07:16:00,54.9,53.5,30.14,West,264,0.0,0.0,95,0.00,,,0.00,Wunderground v.1.15,2013-09-16 11:16:00,
2013-09-16 07:22:00,54.9,53.5,30.13,NNW,333,0.0,1.0,95,0.00,,,0.00,Wunderground v.1.15,2013-09-16 11:22:00,
2013-09-16 07:28:00,54.9,53.5,30.14,WSW,248,0.0,1.0,95,0.00,,,0.00,Wunderground v.1.15,2013-09-16 11:28:00,
2013-09-16 07:34:00,55.1,53.7,30.14,SW,232,0.0,1.0,95,0.00,,,0.00,Wunderground v.1.15,2013-09-16 11:34:00,
2013-09-16 07:40:00,55.2,53.5,30.14,SW,236,0.0,0.0,94,0.00,,,0.00,Wunderground v.1.15,2013-09-16 11:40:00,
2013-09-16 07:46:00,55.3,53.9,30.14,SW,236,0.0,0.0,95,0.00,,,0.00,Wunderground v.1.15,2013-09-16 11:46:00,
2013-09-16 07:52:00,55.4,54.0,30.14,SW,236,0.0,0.0,95,0.00,,,0.00,Wunderground v.1.15,2013-09-16 11:52:00,
2013-09-16 07:58:00,55.5,53.8,30.13,SW,236,0.0,0.0,94,0.00,,,0.00,Wunderground v.1.15,2013-09-16 11:58:00,
2013-09-16 08:04:00,55.5,53.8,30.14,SW,236,0.0,6.0,94,0.00,,,0.00,Wunderground v.1.15,2013-09-16 12:04:00,
2013-09-16 08:10:00,55.6,53.9,30.14,SW,236,0.0,0.0,94,0.00,,,0.00,Wunderground v.1.15,2013-09-16 12:10:00,
2013-09-16 08:16:00,55.7,54.0,30.14,SW,236,0.0,1.0,94,0.00,,,0.00,Wunderground v.1.15,2013-09-16 12:16:00,
2013-09-16 08:22:00,55.7,54.0,30.13,SW,236,0.0,0.0,94,0.00,,,0.00,Wunderground v.1.15,2013-09-16 12:22:00,
2013-09-16 08:28:00,55.8,54.1,30.12,SW,236,0.0,0.0,94,0.00,,,0.00,Wunderground v.1.15,2013-09-16 12:28:00,
2013-09-16 08:34:00,55.9,54.2,30.13,SW,236,0.0,0.0,94,0.00,,,0.00,Wunderground v.1.15,2013-09-16 12:34:00,
2013-09-16 08:40:00,56.0,54.3,30.14,SW,236,0.0,0.0,94,0.00,,,0.00,Wunderground v.1.15,2013-09-16 12:40:00,
2013-09-16 08:46:00,56.3,54.6,30.14,WSW,253,0.0,0.0,94,0.00,,,0.00,Wunderground v.1.15,2013-09-16 12:46:00,
2013-09-16 08:54:00,56.4,54.4,30.15,NNE,13,0.0,0.0,93,0.00,,,0.00,Wunderground v.1.15,2013-09-16 12:54:00,
2013-09-16 09:00:00,56.5,54.8,30.15,North,11,0.0,1.0,94,0.00,,,0.00,Wunderground v.1.15,2013-09-16 13:00:00,
2013-09-16 09:06:00,56.6,54.9,30.15,North,1,0.0,1.0,94,0.00,,,0.00,Wunderground v.1.15,2013-09-16 13:06:00,
2013-09-16 09:12:00,56.7,55.0,30.15,NNE,22,0.0,1.0,94,0.00,,,0.00,Wunderground v.1.15,2013-09-16 13:12:00,
2013-09-16 09:18:00,56.8,54.8,30.15,NNE,30,0.0,1.0,93,0.00,,,0.00,Wunderground v.1.15,2013-09-16 13:18:00,
2013-09-16 09:24:00,57.0,55.0,30.16,NW,317,0.0,1.0,93,0.00,,,0.00,Wunderground v.1.15,2013-09-16 13:24:00,
2013-09-16 09:30:00,57.3,55.0,30.16,NW,323,0.0,0.0,92,0.00,,,0.00,Wunderground v.1.15,2013-09-16 13:30:00,
2013-09-16 09:36:00,57.6,55.3,30.16,North,10,0.0,0.0,92,0.00,,,0.00,Wunderground v.1.15,2013-09-16 13:36:00,
2013-09-16 09:42:00,57.8,55.5,30.16,North,8,0.0,0.0,92,0.00,,,0.00,Wunderground v.1.15,2013-09-16 13:42:00,
2013-09-16 09:48:00,57.7,54.8,30.16,NNE,14,0.0,1.0,90,0.00,,,0.00,Wunderground v.1.15,2013-09-16 13:48:00,
2013-09-16 09:54:00,57.7,54.8,30.16,NE,56,0.0,2.0,90,0.00,,,0.00,Wunderground v.1.15,2013-09-16 13:54:00,
2013-09-16 10:00:00,57.8,54.9,30.16,North,4,0.0,0.0,90,0.00,,,0.00,Wunderground v.1.15,2013-09-16 14:00:00,
2013-09-16 10:06:00,57.9,55.3,30.17,WNW,288,0.0,2.0,91,0.00,,,0.00,Wunderground v.1.15,2013-09-16 14:06:00,
2013-09-16 10:12:00,58.0,55.1,30.16,WNW,292,0.0,0.0,90,0.00,,,0.00,Wunderground v.1.15,2013-09-16 14:12:00,
2013-09-16 10:18:00,58.0,55.1,30.16,NNE,12,0.0,1.0,90,0.00,,,0.00,Wunderground v.1.15,2013-09-16 14:18:00,
2013-09-16 10:24:00,58.0,55.1,30.15,NNW,342,0.0,0.0,90,0.00,,,0.00,Wunderground v.1.15,2013-09-16 14:24:00,
2013-09-16 10:30:00,58.1,55.2,30.16,WNW,286,0.0,0.0,90,0.00,,,0.00,Wunderground v.1.15,2013-09-16 14:30:00,
2013-09-16 10:36:00,58.5,55.6,30.16,WNW,285,0.0,0.0,90,0.00,,,0.00,Wunderground v.1.15,2013-09-16 14:36:00,
2013-09-16 10:42:00,59.0,56.1,30.16,NW,311,0.0,1.0,90,0.00,,,0.00,Wunderground v.1.15,2013-09-16 14:42:00,
2013-09-16 10:48:00,59.1,55.2,30.15,NNW,339,0.0,1.0,87,0.00,,,0.00,Wunderground v.1.15,2013-09-16 14:48:00,
2013-09-16 10:54:00,59.5,55.6,30.15,North,359,0.0,0.0,87,0.00,,,0.00,Wunderground v.1.15,2013-09-16 14:54:00,
2013-09-16 11:00:00,59.7,55.5,30.16,NNE,18,0.0,0.0,86,0.00,,,0.00,Wunderground v.1.15,2013-09-16 15:00:00,
2013-09-16 11:06:00,60.0,55.8,30.16,NNW,342,0.0,4.0,86,0.00,,,0.00,Wunderground v.1.15,2013-09-16 15:06:00,
2013-09-16 11:12:00,60.5,55.3,30.16,NNE,13,1.0,1.0,83,0.00,,,0.00,Wunderground v.1.15,2013-09-16 15:12:00,
2013-09-16 11:18:00,60.7,55.2,30.16,NE,56,1.0,1.0,82,0.00,,,0.00,Wunderground v.1.15,2013-09-16 15:18:00,
2013-09-16 11:24:00,61.8,55.6,30.15,NE,49,1.0,1.0,80,0.00,,,0.00,Wunderground v.1.15,2013-09-16 15:24:00,
2013-09-16 11:30:00,62.4,56.1,30.15,East,79,1.0,1.0,80,0.00,,,0.00,Wunderground v.1.15,2013-09-16 15:30:00,
2013-09-16 11:36:00,62.9,55.9,30.15,NW,326,1.0,1.0,78,0.00,,,0.00,Wunderground v.1.15,2013-09-16 15:36:00,
2013-09-16 11:42:00,63.1,54.3,30.15,West,278,1.0,1.0,73,0.00,,,0.00,Wunderground v.1.15,2013-09-16 15:42:00,
2013-09-16 11:48:00,63.5,54.7,30.14,North,11,1.0,2.0,73,0.00,,,0.00,Wunderground v.1.15,2013-09-16 15:48:00,
2013-09-16 11:54:00,64.1,55.3,30.15,WNW,286,1.0,1.0,73,0.00,,,0.00,Wunderground v.1.15,2013-09-16 15:54:00,
2013-09-16 12:00:00,64.3,53.5,30.15,WNW,300,2.0,2.0,68,0.00,,,0.00,Wunderground v.1.15,2013-09-16 16:00:00,
2013-09-16 12:06:00,64.6,54.2,30.15,WNW,300,2.0,2.0,69,0.00,,,0.00,Wunderground v.1.15,2013-09-16 16:06:00,
2013-09-16 12:12:00,64.4,53.6,30.15,West,281,2.0,2.0,68,0.00,,,0.00,Wunderground v.1.15,2013-09-16 16:12:00,
2013-09-16 12:18:00,63.8,54.2,30.15,NW,304,1.0,2.0,71,0.00,,,0.00,Wunderground v.1.15,2013-09-16 16:18:00,
2013-09-16 12:24:00,63.6,53.2,30.15,WNW,288,2.0,3.0,69,0.00,,,0.00,Wunderground v.1.15,2013-09-16 16:24:00,
2013-09-16 12:30:00,64.1,53.3,30.15,SW,218,2.0,2.0,68,0.00,,,0.00,Wunderground v.1.15,2013-09-16 16:30:00,
2013-09-16 12:36:00,64.1,53.7,30.15,West,277,2.0,4.0,69,0.00,,,0.00,Wunderground v.1.15,2013-09-16 16:36:00,
2013-09-16 12:42:00,64.6,55.0,30.15,NW,310,2.0,2.0,71,0.00,,,0.00,Wunderground v.1.15,2013-09-16 16:42:00,
2013-09-16 12:48:00,64.7,53.5,30.15,WSW,248,1.0,2.0,67,0.00,,,0.00,Wunderground v.1.15,2013-09-16 16:48:00,
2013-09-16 12:54:00,64.4,52.8,30.15,NNW,340,1.0,1.0,66,0.00,,,0.00,Wunderground v.1.15,2013-09-16 16:54:00,
2013-09-16 13:00:00,64.6,53.0,30.15,East,82,1.0,1.0,66,0.00,,,0.00,Wunderground v.1.15,2013-09-16 17:00:00,
2013-09-16 13:06:00,65.2,53.6,30.14,ENE,58,2.0,6.0,66,0.00,,,0.00,Wunderground v.1.15,2013-09-16 17:06:00,
2013-09-16 13:12:00,65.0,53.8,30.14,NNE,16,1.0,3.0,67,0.00,,,0.00,Wunderground v.1.15,2013-09-16 17:12:00,
2013-09-16 13:18:00,64.5,53.3,30.14,NW,304,2.0,3.0,67,0.00,,,0.00,Wunderground v.1.15,2013-09-16 17:18:00,
2013-09-16 13:24:00,64.6,53.8,30.14,NNW,330,2.0,2.0,68,0.00,,,0.00,Wunderground v.1.15,2013-09-16 17:24:00,
2013-09-16 13:30:00,64.9,54.1,30.14,NE,43,1.0,1.0,68,0.00,,,0.00,Wunderground v.1.15,2013-09-16 17:30:00,
2013-09-16 13:36:00,65.6,53.5,30.14,East,98,1.0,2.0,65,0.00,,,0.00,Wunderground v.1.15,2013-09-16 17:36:00,
2013-09-16 13:42:00,66.0,53.9,30.14,ENE,70,2.0,2.0,65,0.00,,,0.00,Wunderground v.1.15,2013-09-16 17:42:00,
2013-09-16 13:48:00,66.4,54.3,30.13,WNW,291,3.0,6.0,65,0.00,,,0.00,Wunderground v.1.15,2013-09-16 17:48:00,
2013-09-16 13:54:00,66.5,54.4,30.13,WNW,297,2.0,3.0,65,0.00,,,0.00,Wunderground v.1.15,2013-09-16 17:54:00,
2013-09-16 14:02:00,66.0,54.3,30.14,NW,316,2.0,6.0,66,0.00,,,0.00,Wunderground v.1.15,2013-09-16 18:02:00,
2013-09-16 14:08:00,66.2,53.7,30.13,NNE,13,2.0,6.0,64,0.00,,,0.00,Wunderground v.1.15,2013-09-16 18:08:00,
2013-09-16 14:14:00,66.7,55.0,30.13,NNE,27,2.0,2.0,66,0.00,,,0.00,Wunderground v.1.15,2013-09-16 18:14:00,
2013-09-16 14:20:00,66.4,54.7,30.13,NNW,338,1.0,1.0,66,0.00,,,0.00,Wunderground v.1.15,2013-09-16 18:20:00,
2013-09-16 14:26:00,66.2,54.5,30.13,WNW,290,1.0,2.0,66,0.00,,,0.00,Wunderground v.1.15,2013-09-16 18:26:00,
2013-09-16 14:32:00,66.2,54.1,30.13,NE,51,2.0,2.0,65,0.00,,,0.00,Wunderground v.1.15,2013-09-16 18:32:00,
2013-09-16 14:38:00,65.8,53.7,30.14,NNW,330,2.0,2.0,65,0.00,,,0.00,Wunderground v.1.15,2013-09-16 18:38:00,
2013-09-16 14:44:00,66.3,55.4,30.13,WSW,257,1.0,2.0,68,0.00,,,0.00,Wunderground v.1.15,2013-09-16 18:44:00,
2013-09-16 14:50:00,66.2,54.5,30.13,WNW,295,1.0,1.0,66,0.00,,,0.00,Wunderground v.1.15,2013-09-16 18:50:00,
2013-09-16 14:56:00,65.4,54.2,30.14,ESE,105,2.0,3.0,67,0.00,,,0.00,Wunderground v.1.15,2013-09-16 18:56:00,
2013-09-16 15:02:00,64.8,54.0,30.14,WSW,252,2.0,9.0,68,0.00,,,0.00,Wunderground v.1.15,2013-09-16 19:02:00,
2013-09-16 15:08:00,64.2,54.6,30.14,NE,47,1.0,9.0,71,0.00,,,0.00,Wunderground v.1.15,2013-09-16 19:08:00,
2013-09-16 15:14:00,64.1,54.9,30.14,NNE,24,1.0,4.0,72,0.00,,,0.00,Wunderground v.1.15,2013-09-16 19:14:00,
2013-09-16 15:20:00,64.0,54.8,30.14,SW,214,1.0,1.0,72,0.00,,,0.00,Wunderground v.1.15,2013-09-16 19:20:00,
2013-09-16 15:26:00,64.3,54.7,30.14,NNE,25,0.0,1.0,71,0.00,,,0.00,Wunderground v.1.15,2013-09-16 19:26:00,
2013-09-16 15:32:00,64.5,55.7,30.14,NNW,342,0.0,0.0,73,0.00,,,0.00,Wunderground v.1.15,2013-09-16 19:32:00,
2013-09-16 15:38:00,64.6,55.0,30.14,ENE,64,1.0,4.0,71,0.00,,,0.00,Wunderground v.1.15,2013-09-16 19:38:00,
2013-09-16 15:44:00,64.6,54.6,30.14,NNE,20,1.0,3.0,70,0.00,,,0.00,Wunderground v.1.15,2013-09-16 19:44:00,
2013-09-16 15:50:00,64.2,54.6,30.14,North,352,2.0,2.0,71,0.00,,,0.00,Wunderground v.1.15,2013-09-16 19:50:00,
2013-09-16 15:56:00,63.7,54.9,30.14,West,281,2.0,3.0,73,0.00,,,0.00,Wunderground v.1.15,2013-09-16 19:56:00,
2013-09-16 16:02:00,63.3,55.2,30.14,WSW,255,1.0,7.0,75,0.00,,,0.00,Wunderground v.1.15,2013-09-16 20:02:00,
2013-09-16 16:08:00,63.1,54.3,30.15,NW,326,1.0,7.0,73,0.00,,,0.00,Wunderground v.1.15,2013-09-16 20:08:00,
2013-09-16 16:14:00,62.9,54.9,30.15,WNW,282,1.0,1.0,75,0.00,,,0.00,Wunderground v.1.15,2013-09-16 20:14:00,
2013-09-16 16:20:00,62.8,55.5,30.15,NW,323,0.0,0.0,77,0.00,,,0.00,Wunderground v.1.15,2013-09-16 20:20:00,
2013-09-16 16:26:00,62.8,55.5,30.15,NW,323,0.0,0.0,77,0.00,,,0.00,Wunderground v.1.15,2013-09-16 20:26:00,
2013-09-16 16:32:00,62.8,55.1,30.15,West,270,0.0,0.0,76,0.00,,,0.00,Wunderground v.1.15,2013-09-16 20:32:00,
2013-09-16 16:38:00,62.6,54.9,30.15,NW,307,0.0,2.0,76,0.00,,,0.00,Wunderground v.1.15,2013-09-16 20:38:00,
2013-09-16 16:44:00,62.7,54.3,30.15,WNW,288,1.0,1.0,74,0.00,,,0.00,Wunderground v.1.15,2013-09-16 20:44:00,
2013-09-16 16:50:00,62.6,54.6,30.15,NW,309,1.0,1.0,75,0.00,,,0.00,Wunderground v.1.15,2013-09-16 20:50:00,
2013-09-16 16:56:00,62.5,54.5,30.15,West,269,1.0,1.0,75,0.00,,,0.00,Wunderground v.1.15,2013-09-16 20:56:00,
2013-09-16 17:02:00,62.4,55.1,30.15,West,266,1.0,7.0,77,0.00,,,0.00,Wunderground v.1.15,2013-09-16 21:02:00,
2013-09-16 17:08:00,62.4,55.4,30.15,West,278,0.0,7.0,78,0.00,,,0.00,Wunderground v.1.15,2013-09-16 21:08:00,
2013-09-16 17:14:00,62.3,55.4,30.16,West,262,0.0,1.0,78,0.00,,,0.00,Wunderground v.1.15,2013-09-16 21:14:00,
2013-09-16 17:20:00,62.2,55.3,30.16,North,357,0.0,0.0,78,0.00,,,0.00,Wunderground v.1.15,2013-09-16 21:20:00,
2013-09-16 17:26:00,62.0,55.4,30.16,NW,316,0.0,0.0,79,0.00,,,0.00,Wunderground v.1.15,2013-09-16 21:26:00,
2013-09-16 17:32:00,61.8,55.2,30.16,NW,316,0.0,0.0,79,0.00,,,0.00,Wunderground v.1.15,2013-09-16 21:32:00,
2013-09-16 17:38:00,61.7,55.1,30.16,NW,316,0.0,0.0,79,0.00,,,0.00,Wunderground v.1.15,2013-09-16 21:38:00,
2013-09-16 17:44:00,61.6,55.4,30.16,NW,316,0.0,0.0,80,0.00,,,0.00,Wunderground v.1.15,2013-09-16 21:44:00,
2013-09-16 17:50:00,61.4,55.5,30.17,WSW,253,0.0,1.0,81,0.00,,,0.00,Wunderground v.1.15,2013-09-16 21:50:00,
2013-09-16 17:56:00,61.3,55.4,30.17,WSW,253,0.0,1.0,81,0.00,,,0.00,Wunderground v.1.15,2013-09-16 21:56:00,
2013-09-16 18:02:00,61.3,55.8,30.17,WSW,253,0.0,4.0,82,0.00,,,0.00,Wunderground v.1.15,2013-09-16 22:02:00,
2013-09-16 18:08:00,61.3,56.1,30.17,NW,319,0.0,4.0,83,0.00,,,0.00,Wunderground v.1.15,2013-09-16 22:08:00,
2013-09-16 18:14:00,61.1,55.6,30.17,NW,319,0.0,0.0,82,0.00,,,0.00,Wunderground v.1.15,2013-09-16 22:14:00,
2013-09-16 18:20:00,60.7,55.8,30.17,NW,319,0.0,0.0,84,0.00,,,0.00,Wunderground v.1.15,2013-09-16 22:20:00,
2013-09-16 18:26:00,60.4,55.5,30.17,NW,319,0.0,0.0,84,0.00,,,0.00,Wunderground v.1.15,2013-09-16 22:26:00,
2013-09-16 18:32:00,60.1,55.2,30.18,NW,319,0.0,0.0,84,0.00,,,0.00,Wunderground v.1.15,2013-09-16 22:32:00,
2013-09-16 18:38:00,59.7,55.2,30.18,NW,319,0.0,0.0,85,0.00,,,0.00,Wunderground v.1.15,2013-09-16 22:38:00,
2013-09-16 18:44:00,59.5,55.0,30.18,NW,319,0.0,0.0,85,0.00,,,0.00,Wunderground v.1.15,2013-09-16 22:44:00,
2013-09-16 18:50:00,59.3,55.1,30.18,NW,319,0.0,0.0,86,0.00,,,0.00,Wunderground v.1.15,2013-09-16 22:50:00,
2013-09-16 18:56:00,59.0,54.8,30.18,NW,321,0.0,0.0,86,0.00,,,0.00,Wunderground v.1.15,2013-09-16 22:56:00,
2013-09-16 19:02:00,58.9,54.7,30.18,NW,305,0.0,1.0,86,0.00,,,0.00,Wunderground v.1.15,2013-09-16 23:02:00,
2013-09-16 19:08:00,58.8,54.9,30.18,NW,305,0.0,1.0,87,0.00,,,0.00,Wunderground v.1.15,2013-09-16 23:08:00,
2013-09-16 19:14:00,58.6,54.7,30.19,NW,305,0.0,0.0,87,0.00,,,0.00,Wunderground v.1.15,2013-09-16 23:14:00,
2013-09-16 19:20:00,58.4,54.5,30.19,NW,305,0.0,0.0,87,0.00,,,0.00,Wunderground v.1.15,2013-09-16 23:20:00,
2013-09-16 19:26:00,58.2,54.3,30.19,WNW,300,0.0,0.0,87,0.00,,,0.00,Wunderground v.1.15,2013-09-16 23:26:00,
2013-09-16 19:32:00,58.0,54.2,30.20,WNW,300,0.0,0.0,87,0.00,,,0.00,Wunderground v.1.15,2013-09-16 23:32:00,
2013-09-16 19:38:00,57.9,54.4,30.20,NE,34,0.0,2.0,88,0.00,,,0.00,Wunderground v.1.15,2013-09-16 23:38:00,
2013-09-16 19:44:00,58.1,54.2,30.21,North,2,1.0,3.0,87,0.00,,,0.00,Wunderground v.1.15,2013-09-16 23:44:00,
2013-09-16 19:50:00,58.3,53.8,30.21,North,11,2.0,3.0,85,0.00,,,0.00,Wunderground v.1.15,2013-09-16 23:50:00,
2013-09-16 19:56:00,58.0,53.2,30.21,West,267,2.0,3.0,84,0.00,,,0.00,Wunderground v.1.15,2013-09-16 23:56:00,
2013-09-16 20:02:00,57.8,53.0,30.22,WNW,289,2.0,2.0,84,0.00,,,0.00,Wunderground v.1.15,2013-09-17 00:02:00,
2013-09-16 20:08:00,57.6,52.8,30.22,WNW,295,1.0,5.0,84,0.00,,,0.00,Wunderground v.1.15,2013-09-17 00:08:00,
2013-09-16 20:14:00,57.3,52.8,30.22,West,269,1.0,2.0,85,0.00,,,0.00,Wunderground v.1.15,2013-09-17 00:14:00,
2013-09-16 20:20:00,57.0,52.5,30.23,NNW,347,0.0,3.0,85,0.00,,,0.00,Wunderground v.1.15,2013-09-17 00:20:00,
2013-09-16 20:26:00,56.8,52.3,30.23,West,266,1.0,3.0,85,0.00,,,0.00,Wunderground v.1.15,2013-09-17 00:26:00,
2013-09-16 20:32:00,56.6,51.8,30.24,West,266,2.0,2.0,84,0.00,,,0.00,Wunderground v.1.15,2013-09-17 00:32:00,
2013-09-16 20:38:00,56.3,51.8,30.24,WSW,245,1.0,2.0,85,0.00,,,0.00,Wunderground v.1.15,2013-09-17 00:38:00,
2013-09-16 20:44:00,56.1,51.7,30.24,West,260,1.0,2.0,85,0.00,,,0.00,Wunderground v.1.15,2013-09-17 00:44:00,
2013-09-16 20:50:00,55.8,51.7,30.25,North,1,1.0,1.0,86,0.00,,,0.00,Wunderground v.1.15,2013-09-17 00:50:00,
2013-09-16 20:56:00,55.4,51.3,30.25,NW,312,0.0,1.0,86,0.00,,,0.00,Wunderground v.1.15,2013-09-17 00:56:00,
2013-09-16 21:02:00,55.0,51.2,30.25,WSW,240,0.0,8.0,87,0.00,,,0.00,Wunderground v.1.15,2013-09-17 01:02:00,
2013-09-16 21:08:00,54.6,51.1,30.26,WSW,238,0.0,8.0,88,0.00,,,0.00,Wunderground v.1.15,2013-09-17 01:08:00,
2013-09-16 21:14:00,54.3,50.8,30.26,SW,235,1.0,1.0,88,0.00,,,0.00,Wunderground v.1.15,2013-09-17 01:14:00,
2013-09-16 21:20:00,54.0,50.5,30.26,WSW,243,0.0,2.0,88,0.00,,,0.00,Wunderground v.1.15,2013-09-17 01:20:00,
2013-09-16 21:26:00,53.7,50.2,30.27,SSW,207,0.0,2.0,88,0.00,,,0.00,Wunderground v.1.15,2013-09-17 01:26:00,
2013-09-16 21:32:00,53.4,50.2,30.27,SSW,207,0.0,0.0,89,0.00,,,0.00,Wunderground v.1.15,2013-09-17 01:32:00,
2013-09-16 21:38:00,53.1,49.9,30.28,SSW,207,0.0,0.0,89,0.00,,,0.00,Wunderground v.1.15,2013-09-17 01:38:00,
2013-09-16 21:44:00,53.0,49.5,30.28,NNW,333,0.0,1.0,88,0.00,,,0.00,Wunderground v.1.15,2013-09-17 01:44:00,
2013-09-16 21:50:00,53.0,49.5,30.28,West,281,1.0,2.0,88,0.00,,,0.00,Wunderground v.1.15,2013-09-17 01:50:00,
2013-09-16 21:56:00,53.0,48.9,30.29,WNW,284,1.0,3.0,86,0.00,,,0.00,Wunderground v.1.15,2013-09-17 01:56:00,
2013-09-16 22:02:00,52.9,48.8,30.29,WNW,288,1.0,5.0,86,0.00,,,0.00,Wunderground v.1.15,2013-09-17 02:02:00,
2013-09-16 22:08:00,52.5,48.1,30.30,WNW,291,1.0,5.0,85,0.00,,,0.00,Wunderground v.1.15,2013-09-17 02:08:00,
2013-09-16 22:14:00,52.2,47.8,30.30,North,1,1.0,3.0,85,0.00,,,0.00,Wunderground v.1.15,2013-09-17 02:14:00,
2013-09-16 22:20:00,51.8,47.7,30.30,WNW,286,0.0,0.0,86,0.00,,,0.00,Wunderground v.1.15,2013-09-17 02:20:00,
2013-09-16 22:26:00,51.3,47.3,30.30,West,281,0.0,1.0,86,0.00,,,0.00,Wunderground v.1.15,2013-09-17 02:26:00,
2013-09-16 22:32:00,51.0,47.0,30.30,West,263,0.0,1.0,86,0.00,,,0.00,Wunderground v.1.15,2013-09-17 02:32:00,
2013-09-16 22:38:00,50.7,46.7,30.31,West,274,0.0,1.0,86,0.00,,,0.00,Wunderground v.1.15,2013-09-17 02:38:00,
2013-09-16 22:44:00,50.5,46.5,30.31,WNW,286,0.0,1.0,86,0.00,,,0.00,Wunderground v.1.15,2013-09-17 02:44:00,
2013-09-16 22:50:00,50.3,46.3,30.31,West,278,1.0,1.0,86,0.00,,,0.00,Wunderground v.1.15,2013-09-17 02:50:00,
2013-09-16 22:56:00,50.0,46.0,30.32,WNW,287,1.0,1.0,86,0.00,,,0.00,Wunderground v.1.15,2013-09-17 02:56:00,
2013-09-16 23:02:00,49.7,45.7,30.32,NNW,333,0.0,7.0,86,0.00,,,0.00,Wunderground v.1.15,2013-09-17 03:02:00,
2013-09-16 23:08:00,49.3,45.3,30.32,NW,316,0.0,7.0,86,0.00,,,0.00,Wunderground v.1.15,2013-09-17 03:08:00,
2013-09-16 23:14:00,49.0,45.3,30.33,North,355,0.0,0.0,87,0.00,,,0.00,Wunderground v.1.15,2013-09-17 03:14:00,
2013-09-16 23:20:00,48.7,45.0,30.33,North,359,0.0,0.0,87,0.00,,,0.00,Wunderground v.1.15,2013-09-17 03:20:00,
2013-09-16 23:26:00,48.4,45.0,30.33,NE,47,0.0,0.0,88,0.00,,,0.00,Wunderground v.1.15,2013-09-17 03:26:00,
2013-09-16 23:32:00,48.1,44.7,30.33,NNE,27,0.0,5.0,88,0.00,,,0.00,Wunderground v.1.15,2013-09-17 03:32:00,
2013-09-16 23:38:00,48.0,44.3,30.33,NE,41,0.0,5.0,87,0.00,,,0.00,Wunderground v.1.15,2013-09-17 03:38:00,
2013-09-16 23:44:00,47.8,44.1,30.34,NE,51,0.0,0.0,87,0.00,,,0.00,Wunderground v.1.15,2013-09-17 03:44:00,
2013-09-16 23:50:00,47.7,43.7,30.34,WSW,238,0.0,0.0,86,0.00,,,0.00,Wunderground v.1.15,2013-09-17 03:50:00,
2013-09-16 23:56:00,47.6,43.6,30.34,NW,304,1.0,2.0,86,0.00,,,0.00,Wunderground v.1.15,2013-09-17 03:56:00,